CAPE
826 1059 1525 365 3 0 0 0 0 0 0 192 285 240 299 196 54 0 0 116 352 421 376 770 1512 1089 1010 1026 1385 1652 2430 2164 2390 2374 2507 2245 1759 1891 1948 1810 1832 1605 1582 1500 1460 1615 1572 765 610
1114 1044 299 72 0 0 0 29 16 0 47 89 176 285 356 413 15 3 125 310 459 436 370 455 1442 1522 1262 1215 1760 2402 2218 2206 2472 2619 2590 2177 1765 2467 2217 1527 1442 1512 1580 1336 1301 1221 814 752 944
1030 632 85 57 1 0 2 38 26 51 76 26 198 275 387 58 24 6 213 460 500 441 482 731 1540 1224 1448 1476 1615 2218 2381 2308 2526 2481 2339 1970 1898 2575 1525 1350 1307 1222 1235 1319 1114 715 967 1125 1304
1070 309 80 38 12 29 19 39 34 61 129 233 333 358 356 271 117 218 528 578 470 554 584 1012 1563 1698 1674 1493 1706 1866 2246 2162 2550 2689 2510 1828 1890 1696 1647 1723 1551 1282 976 892 1229 1204 1022 771 947
144 15 19 7 0 38 64 45 105 65 331 486 350 351 333 328 309 444 635 614 528 491 550 1111 1815 1835 1822 2011 2301 2407 2253 2328 2740 2710 2268 2307 2012 1832 1862 1903 1837 1722 1277 776 935 1158 1206 1092 934
186 52 9 33 48 62 38 19 105 252 357 346 403 353 354 387 253 397 465 641 651 495 548 982 1854 2123 2645 2481 2303 2596 2244 2298 2611 2409 2067 1958 1956 1936 1818 1691 1632 1672 1777 1151 895 1118 1082 880 999
356 369 297 216 153 134 59 40 105 229 352 431 370 385 388 401 162 280 401 888 961 827 658 855 1165 1761 1894 2619 2755 2642 2717 2555 2794 2710 2821 2458 1667 1861 1913 1762 1845 1722 1538 1797 1093 1056 1326 1243 1040
371 388 336 342 215 155 72 70 132 218 230 343 317 360 440 238 71 154 555 977 1128 1061 954 892 995 1520 1573 1685 2480 3082 2909 2903 2308 2184 1826 1779 1852 1865 2018 2114 2041 1383 1673 1682 1306 1121 752 985 864
322 327 339 379 302 51 73 61 132 97 289 388 333 357 372 230 107 362 647 1035 1117 1124 1164 1338 1450 1585 1729 1978 2034 3225 2831 2361 1895 1649 1354 2142 1349 1463 1618 1710 1454 1554 1542 1477 1389 1247 1216 996 939
164 121 52 324 226 6 72 107 68 108 266 304 413 398 340 151 472 423 491 747 1003 1226 1480 1606 1889 1828 1841 2079 1848 2388 2194 1792 1604 1314 1646 1733 1581 1570 1677 1911 1904 1643 1608 1493 1695 1615 1237 1140 825
87 0 0 0 0 0 50 87 105 163 214 260 431 406 288 533 535 498 429 579 712 1137 1519 1673 1954 1921 1863 1997 2021 2168 2061 1951 1792 1432 1506 1668 1478 1729 1859 1566 1333 1605 1794 1403 1578 1486 1274 583 669
0 0 0 0 0 2 59 34 90 166 186 248 451 402 431 704 670 621 536 525 580 1152 1455 1563 1732 1920 1902 1780 1941 2038 1922 1878 1788 1646 1526 1663 1553 1503 1568 1450 1515 1585 1538 1674 1221 1462 1059 709 354
0 0 0 0 0 0 11 18 164 200 611 425 417 514 725 771 766 758 670 543 631 895 1249 1501 1665 1716 1775 1691 1777 1689 1687 1812 1820 1825 1913 1802 1755 1408 1097 1047 1058 1318 1402 1269 1301 1059 996 572 510
0 0 0 0 0 0 26 201 300 238 496 460 434 602 695 739 782 814 772 577 704 714 962 1307 1522 1558 1648 1548 1653 1875 1699 1788 1819 1789 1828 1754 1666 1391 907 982 1184 1098 1335 1066 1013 817 742 563 490
0 0 0 0 0 0 0 112 277 336 563 332 469 537 565 576 660 719 735 569 590 608 752 1024 1264 1328 1460 1583 1427 1474 1328 1580 1651 1487 1417 1510 1517 1210 1009 1048 1036 1049 1142 1158 838 847 734 719 630
0 0 0 0 0 0 0 0 290 399 695 362 484 470 504 470 508 570 619 534 462 455 617 797 992 1098 1219 1309 1347 1245 1145 1035 1125 1270 1344 1249 1338 1366 1262 1050 1117 896 1211 949 937 1015 985 937 692
0 0 0 0 0 0 0 0 296 549 734 379 413 504 485 397 380 413 502 497 620 261 385 614 789 849 917 1020 1195 1185 886 774 859 951 955 1005 1253 1351 1348 1311 1376 997 1004 1010 1009 978 844 577 503
0 0 0 0 0 0 0 0 365 546 680 454 397 381 513 614 574 494 335 573 558 584 364 545 804 797 817 853 1209 1323 1338 1126 816 872 876 1019 1131 1387 1437 1409 1408 1285 1104 1094 878 780 550 435 397
0 0 0 0 0 0 0 0 389 547 599 579 438 413 525 878 725 628 578 655 716 740 588 579 677 822 854 841 1083 1248 1237 1336 1356 1283 1205 1288 1277 1223 1286 1373 1295 1270 1318 1017 887 686 515 454 419
0 0 0 0 0 0 0 0 0 518 579 646 554 490 615 997 965 819 717 712 782 841 770 853 957 1013 994 932 1066 1181 1311 1394 1477 1542 1480 1453 1539 1604 1592 1476 1328 1331 1078 973 796 801 530 451 468
0 0 0 0 0 0 0 0 0 313 496 620 660 584 626 971 1069 1048 857 820 857 762 836 1004 1084 1201 1254 1238 1167 1233 1348 1439 1605 1695 1656 1546 1370 1495 1531 1521 1514 1479 1328 1190 1097 845 849 736 675
0 0 0 0 0 0 0 0 54 204 674 815 530 602 613 907 1071 1159 1101 985 972 949 1121 1102 1179 1270 1393 1475 1483 1356 1278 1196 1331 1547 1439 1135 1221 1386 1504 1536 1555 1498 1406 1287 1169 1148 962 884 870
0 0 0 0 0 0 0 0 0 155 762 1116 741 511 571 797 1082 1160 1246 1217 1009 941 1166 1414 1564 1504 1426 1552 1619 1564 1502 1294 1522 1579 1520 1594 1958 1782 1607 1622 1600 1380 1280 1267 1250 1075 1093 1004 960
0 0 0 0 0 0 0 0 0 121 504 1039 1204 1054 1012 983 1241 1352 1536 1580 1346 1358 1301 1517 1615 1655 1670 1676 1724 1789 1753 1824 1908 1691 1624 1817 2018 2012 2001 2029 1957 1914 1911 1545 1343 1230 1020 931 945
0 0 0 0 0 0 0 0 0 0 456 1148 1455 1440 1423 1446 1495 1634 1742 1729 1751 1666 1597 1656 1650 1557 1675 1756 1766 1740 1801 1794 1806 1939 2078 2328 2401 2456 2424 2160 2028 1968 2023 1937 1826 1363 1094 918 917
0 0 0 0 0 0 0 0 0 0 93 1308 1675 1705 1748 1901 2009 1878 1990 1989 1908 1865 1905 1830 1845 1880 1905 1832 1717 1713 1885 1985 2052 2149 2201 2350 2439 2320 2216 2133 2004 1865 1738 1750 1686 1652 1546 1016 670
0 0 0 0 0 0 0 0 0 0 297 1474 1998 2129 2149 2096 2053 2093 2098 2096 2068 2066 2007 2173 2136 1908 1838 2088 2295 2444 2520 2573 2552 2472 2387 2217 2082 2073 2011 1949 1888 1811 1819 1839 1708 1580 1393 1221 934
0 0 0 0 0 0 0 0 0 0 394 1490 1988 1980 1941 2007 2087 2100 2108 2197 2197 2164 2142 2202 2384 2303 1999 1715 1277 1167 1067 1080 1149 1290 1440 1517 1592 1503 1705 1881 1912 1808 1770 1674 1568 1599 1554 1242 1048
0 0 0 0 0 0 0 0 0 0 96 1462 1836 1819 1856 1861 1791 1680 1871 1989 1999 1875 1729 1216 901 847 872 643 572 712 760 751 743 884 881 808 744 664 699 834 1192 1478 1731 1599 1470 1498 1498 1352 1235
0 0 0 0 0 0 0 0 0 0 19 415 1254 1020 1152 1522 1024 785 858 940 904 915 970 823 666 610 232 396 426 299 282 326 375 382 342 280 119 173 317 463 616 947 1397 1721 1514 1348 1680 1456 1436
CIN
-387 -312 -231 -449 -20 -0 -0 -0 -0 -0 -0 -118 -64 -55 -92 -95 -81 -0 -0 -47 -19 -19 -17 -13 -0 -0 -1 -0 -1 -0 -0 -0 -0 -0 -0 -0 -2 -0 -0 -0 -0 -0 -0 -0 -0 -0 -0 -0 -11
-261 -336 -556 -307 -0 -0 -0 -112 -165 -0 -201 -138 -118 -94 -94 -52 -178 -54 -47 -2 -22 -17 -23 -23 -0 -0 -0 -0 -0 -0 -0 -0 -0 -0 -0 -0 -1 -0 -0 -0 -0 -0 -0 -0 -0 -0 -0 -0 -0
-294 -412 -99 -128 -47 -0 -11 -144 -141 -148 -165 -147 -124 -126 -119 -140 -147 -114 -37 -1 -15 -19 -24 -18 -0 -0 -0 -0 -0 -0 -0 -0 -0 -0 -0 -0 -0 -0 -0 -0 -0 -0 -0 -0 -0 -0 -0 -0 -0
-305 -429 -36 -81 -133 -152 -131 -108 -132 -108 -159 -203 -185 -154 -118 -85 -117 -91 -12 -2 -19 -14 -21 -5 -0 -0 -0 -2 -0 -0 -0 -0 -0 -0 -0 -0 -0 -0 -0 -0 -0 -0 -0 -1 -0 -0 -0 -0 -0
-412 -59 -52 -26 -0 -205 -205 -131 -211 -165 -191 -196 -189 -181 -149 -81 -129 -64 -6 -7 -25 -20 -29 -5 -0 -0 -0 -0 -0 -0 -0 -0 -0 -0 -0 -0 -0 -0 -0 -0 -0 -0 -0 -6 -0 -0 -0 -0 -0
-63 -142 -57 -34 -71 -129 -141 -76 -195 -200 -230 -234 -245 -245 -175 -102 -161 -70 -28 -14 -20 -27 -24 -19 -0 -0 -0 -0 -0 -0 -0 -0 -0 -0 -0 -0 -0 -0 -0 -0 -0 -0 -0 -0 -0 -0 -0 -1 -3
-96 -119 -109 -106 -140 -134 -115 -167 -163 -208 -208 -228 -284 -280 -224 -157 -227 -137 -45 -8 -12 -22 -22 -25 -15 -3 -2 -0 -0 -0 -0 -0 -0 -0 -0 -0 -2 -0 -0 -0 -0 -0 -0 -0 -0 -0 -0 -0 -9
-133 -148 -154 -140 -71 -50 -39 -195 -176 -198 -219 -270 -309 -323 -280 -319 -333 -224 -43 -9 -13 -24 -40 -52 -25 -15 -12 -13 -4 -0 -5 -0 -2 -0 -0 -1 -0 -0 -0 -0 -0 -1 -0 -0 -0 -0 -15 -15 -16
-299 -163 -199 -172 -112 -93 -39 -66 -179 -51 -267 -257 -292 -375 -372 -401 -391 -197 -46 -0 -4 -16 -25 -34 -30 -26 -21 -6 -7 -0 -0 -1 -0 -1 -7 -1 -21 -15 -4 -6 -5 -1 -0 -0 -3 -0 -0 -20 -24
-228 -240 -371 -216 -163 -31 -62 -84 -141 -280 -275 -315 -356 -405 -408 -448 -299 -240 -151 -39 -6 -7 -11 -15 -8 -13 -1 -1 -1 -1 -0 -4 -1 -3 -4 -2 -8 -6 -12 -4 -0 -1 -0 -1 -0 -0 -0 -5 -46
-317 -0 -0 -0 -0 -0 -100 -92 -239 -274 -252 -312 -423 -447 -484 -367 -308 -266 -221 -126 -112 -33 -7 -12 -1 -5 -3 -1 -1 -2 -1 -1 -3 -7 -3 -6 -15 -8 -2 -7 -5 -0 -1 -7 -4 -1 -2 -48 -59
-0 -0 -0 -0 -0 -51 -137 -156 -273 -218 -154 -119 -446 -457 -446 -346 -314 -273 -236 -192 -121 -52 -46 -29 -4 -2 -2 -12 -4 -6 -9 -3 -4 -11 -14 -2 -8 -20 -16 -25 -15 -7 -10 -2 -21 -11 -30 -53 -112
-0 -0 -0 -0 -0 -0 -146 -339 -186 -228 -76 -114 -444 -420 -362 -322 -301 -266 -257 -240 -171 -99 -74 -50 -30 -26 -23 -35 -32 -30 -31 -17 -17 -16 -4 -6 -6 -33 -47 -57 -56 -32 -19 -40 -30 -35 -38 -78 -97
-0 -0 -0 -0 -0 -0 -228 -176 -115 -173 -122 -135 -436 -413 -365 -327 -297 -257 -241 -279 -233 -181 -131 -91 -63 -59 -62 -70 -65 -35 -31 -31 -22 -16 -15 -11 -18 -33 -76 -51 -34 -48 -13 -44 -49 -65 -64 -75 -64
-0 -0 -0 -0 -0 -0 -7 -156 -56 -195 -109 -266 -435 -409 -392 -379 -336 -293 -246 -292 -313 -284 -213 -171 -130 -112 -93 -79 -93 -68 -64 -40 -39 -46 -40 -35 -26 -51 -54 -42 -36 -70 -45 -33 -61 -53 -59 -55 -54
-0 -0 -0 -0 -0 -0 -0 -0 -276 -205 -94 -339 -434 -407 -397 -363 -343 -305 -247 -223 -283 -315 -280 -220 -194 -171 -150 -138 -121 -120 -111 -112 -94 -69 -57 -67 -63 -51 -39 -39 -19 -43 -25 -54 -53 -39 -32 -29 -39
-0 -0 -0 -0 -0 -0 -0 -0 -285 -156 -102 -349 -377 -400 -324 -349 -331 -304 -261 -212 -90 -275 -323 -174 -243 -242 -218 -192 -144 -116 -131 -158 -139 -112 -101 -114 -110 -69 -54 -46 -36 -40 -30 -12 -28 -28 -32 -44 -44
-0 -0 -0 -0 -0 -0 -0 -0 -298 -145 -124 -93 -305 -331 -161 -40 -41 -39 -256 -330 -85 -77 -86 -55 -24 -18 -228 -200 -143 -114 -92 -105 -162 -170 -157 -140 -127 -103 -80 -60 -58 -37 -40 -30 -35 -38 -51 -63 -110
-0 -0 -0 -0 -0 -0 -0 -0 -277 -165 -136 -109 -111 -301 -33 -37 -62 -49 -49 -283 -238 -90 -82 -293 -35 -28 -230 -210 -164 -122 -133 -106 -85 -78 -19 -25 -29 -47 -119 -102 -80 -67 -41 -65 -57 -49 -114 -111 -51
-0 -0 -0 -0 -0 -0 -0 -0 -0 -198 -149 -97 -108 -65 -40 -42 -41 -49 -45 -37 -199 -176 -90 -28 -235 -214 -202 -209 -175 -137 -113 -109 -90 -63 -54 -47 -126 -84 -74 -62 -43 -27 -59 -61 -76 -56 -117 -112 -67
-0 -0 -0 -0 -0 -0 -0 -0 -0 -271 -190 -126 -103 -104 -59 -30 -44 -39 -52 -28 -19 -61 -146 -5 -227 -100 -184 -159 -151 -131 -111 -94 -63 -39 -44 -59 -166 -129 -76 -65 -54 -44 -34 -6 -4 -6 -37 -76 -67
-0 -0 -0 -0 -0 -0 -0 -0 -134 -204 -264 -268 -161 -124 -85 -43 -46 -32 -33 -29 -26 -60 -327 -286 -15 -217 -192 -173 -144 -118 -107 -156 -121 -60 -60 -99 -66 -150 -125 -59 -53 -40 -29 -25 -19 -7 -4 -9 -54
-0 -0 -0 -0 -0 -0 -0 -0 -0 -125 -201 -235 -357 -131 -104 -38 -26 -25 -25 -22 -37 -34 -384 -307 -272 -236 -232 -207 -162 -134 -109 -86 -48 -34 -42 -13 -6 -7 -8 -8 -110 -11 -69 -63 -49 -51 -17 -6 -5
-0 -0 -0 -0 -0 -0 -0 -0 -0 -204 -200 -208 -276 -353 -396 -179 -25 -32 -26 -26 -30 -37 -45 -370 -286 -233 -188 -157 -155 -84 -97 -73 -51 -51 -39 -18 -9 -9 -9 -9 -11 -6 -4 -20 -51 -53 -35 -24 -18
-0 -0 -0 -0 -0 -0 -0 -0 -0 -0 -238 -203 -213 -243 -243 -238 -25 -29 -32 -35 -34 -37 -43 -353 -285 -227 -84 -77 -98 -101 -102 -108 -84 -18 -17 -11 -8 -11 -16 -19 -19 -19 -15 -18 -21 -41 -73 -73 -41
-0 -0 -0 -0 -0 -0 -0 -0 -0 -0 -162 -200 -150 -147 -94 -46 -36 -41 -32 -44 -33 -31 -30 -256 -223 -185 -153 -112 -74 -55 -40 -31 -28 -24 -26 -20 -19 -31 -35 -28 -33 -23 -26 -22 -23 -22 -32 -69 -66
-0 -0 -0 -0 -0 -0 -0 -0 -0 -0 -319 -147 -76 -62 -64 -71 -69 -63 -54 -46 -41 -34 -183 -179 -124 -122 -130 -110 -97 -79 -68 -54 -56 -59 -56 -56 -56 -55 -54 -43 -34 -28 -16 -13 -15 -16 -19 -37 -47
-0 -0 -0 -0 -0 -0 -0 -0 -0 -0 -199 -107 -49 -50 -64 -78 -83 -62 -50 -60 -58 -47 -47 -67 -48 -35 -49 -40 -30 -43 -36 -37 -42 -138 -110 -113 -45 -91 -64 -49 -43 -35 -30 -32 -28 -17 -12 -25 -68
-0 -0 -0 -0 -0 -0 -0 -0 -0 -0 -199 -87 -61 -67 -81 -79 -76 -91 -82 -72 -48 -43 -32 -29 -25 -33 -14 -12 -95 -109 -112 -95 -100 -81 -77 -186 -172 -165 -133 -106 -65 -38 -29 -49 -32 -37 -24 -13 -25
-0 -0 -0 -0 -0 -0 -0 -0 -0 -0 -146 -69 -55 -81 -103 -79 -98 -135 -114 -93 -70 -58 -30 -18 -19 -16 -92 -122 -138 -143 -152 -128 -107 -81 -74 -76 -235 -304 -215 -151 -90 -49 -10 -1 -13 -20 -10 -8 -5
Wind_Speed
20 27 22 19 nan nan nan nan nan nan nan 27 23 17 18 5 nan nan nan 7 10 6 2 12 18 20 14 12 22 17 15 15 8 8 11 13 11 12 12 12 12 9 7 6 3 0 0 3 3
16 19 19 nan nan nan nan nan nan nan nan nan 26 22 19 11 nan nan 7 9 8 5 2 6 13 15 15 15 15 17 16 15 13 11 13 12 11 13 14 13 12 11 9 8 6 3 1 4 2
8 19 nan nan nan nan nan nan nan nan nan nan 28 23 18 nan nan nan 11 11 7 1 2 5 14 13 12 8 11 15 18 16 15 13 14 12 10 12 12 12 11 12 10 8 6 3 1 3 3
17 17 nan nan nan nan nan nan nan nan 21 21 29 21 17 16 17 14 14 12 7 2 4 4 12 19 16 19 19 18 19 16 13 13 13 12 11 10 12 10 10 11 11 9 8 6 3 3 4
14 nan nan nan nan nan nan nan 22 nan 21 17 26 24 19 15 15 18 15 10 7 6 7 5 10 13 20 23 22 22 21 18 17 14 11 12 10 12 10 12 10 9 10 9 7 6 4 1 3
9 nan nan nan nan nan nan nan 21 20 20 18 15 23 20 19 18 20 14 8 8 7 6 8 8 10 14 18 18 23 20 23 19 20 14 11 10 11 12 11 9 9 10 9 7 5 4 2 3
4 5 12 21 27 28 nan nan 20 21 23 20 16 18 20 23 21 20 15 12 10 11 8 4 3 6 11 14 20 22 22 15 18 15 19 11 11 9 11 10 9 8 10 9 9 6 5 4 4
4 4 8 18 20 24 nan nan 21 20 21 17 21 18 24 25 nan 18 15 13 10 9 11 3 3 3 2 3 3 4 12 10 14 15 14 13 10 10 10 9 8 8 9 8 9 6 4 4 5
7 5 14 19 15 nan nan nan 20 nan 22 24 22 16 16 23 22 20 17 15 16 13 11 6 13 11 9 6 4 5 13 11 10 14 17 15 14 12 8 7 6 7 7 7 8 8 5 5 3
8 7 nan 17 17 nan nan 18 nan 19 23 16 12 14 21 24 20 23 25 23 21 19 15 9 9 9 10 7 8 7 2 7 17 23 24 21 21 14 9 6 4 5 6 7 8 7 7 7 8
nan nan nan nan nan nan nan nan 19 18 23 23 25 25 27 27 27 24 25 27 28 24 26 23 12 8 8 10 8 6 3 9 14 18 19 21 24 22 16 11 11 10 8 11 11 10 9 8 9
nan nan nan nan nan nan nan nan nan 25 21 22 27 28 25 27 28 30 27 26 24 26 27 22 18 16 12 5 8 7 6 4 4 1 4 11 12 16 18 13 13 13 13 10 10 10 8 7 8
nan nan nan nan nan nan nan nan 23 25 15 21 23 24 26 25 25 25 26 24 21 24 26 25 22 21 20 17 9 8 9 9 7 2 5 7 6 6 14 21 17 17 14 15 14 9 8 8 8
nan nan nan nan nan nan nan 11 14 19 20 23 25 25 24 23 23 19 20 23 25 20 23 24 25 24 22 21 21 14 8 5 4 8 9 10 8 6 10 10 20 22 19 17 16 16 9 9 9
nan nan nan nan nan nan nan 10 24 21 26 25 22 22 25 26 23 23 20 21 24 24 18 22 22 21 25 26 23 20 18 15 12 13 13 13 14 14 16 9 12 22 26 23 18 10 11 11 12
nan nan nan nan nan nan nan nan 14 22 29 28 26 25 24 25 24 19 16 16 17 18 24 20 19 20 21 23 22 21 20 19 19 18 15 15 14 14 15 19 10 16 18 20 18 10 12 12 15
nan nan nan nan nan nan nan nan 7 17 23 30 35 36 28 23 24 22 19 13 11 14 17 20 19 16 17 14 13 13 15 17 16 16 17 17 16 16 17 17 16 18 10 13 19 19 19 20 20
nan nan nan nan nan nan nan nan 4 12 18 26 31 30 30 26 29 24 18 18 12 9 10 13 14 14 8 4 6 7 7 9 9 9 9 10 12 14 14 14 14 12 8 8 10 16 25 19 19
nan nan nan nan nan nan nan nan 3 8 11 18 25 28 30 32 18 17 20 17 15 12 8 10 13 11 11 6 4 2 4 3 4 6 9 10 12 13 12 11 12 13 12 11 12 11 11 26 24
nan nan nan nan nan nan nan nan nan 3 9 16 21 24 29 23 23 18 21 21 17 18 13 10 9 11 11 9 10 10 10 8 8 7 10 12 13 14 11 10 9 12 13 11 10 12 13 16 24
nan nan nan nan nan nan nan nan nan 2 3 5 15 16 15 25 27 23 22 24 20 17 12 12 12 10 10 12 12 16 18 18 15 12 14 14 13 17 17 16 14 13 14 14 16 15 15 14 25
nan nan nan nan nan nan nan nan nan 8 2 5 13 13 16 19 21 22 20 25 27 23 14 13 14 11 11 15 13 14 13 16 15 15 15 17 22 20 19 19 19 19 21 19 17 19 18 20 19
nan nan nan nan nan nan nan nan nan 15 8 10 11 12 12 19 23 25 26 30 25 23 22 21 20 17 16 18 17 14 11 12 15 17 16 17 20 20 21 20 21 22 23 22 20 24 27 22 19
nan nan nan nan nan nan nan nan nan 17 19 14 8 10 13 19 20 22 21 23 26 25 28 25 22 19 19 20 20 21 17 14 16 16 18 19 21 22 22 24 24 24 25 24 25 24 26 27 24
nan nan nan nan nan nan nan nan nan nan 12 17 17 15 16 19 22 24 25 28 27 26 25 23 23 20 23 25 22 19 19 20 18 19 21 21 23 26 25 29 27 29 27 27 29 29 30 31 33
nan nan nan nan nan nan nan nan nan nan nan 27 24 24 22 18 21 23 27 29 28 27 27 26 25 21 21 22 22 24 24 24 23 22 24 26 28 29 30 33 33 32 34 33 30 32 37 44 44
nan nan nan nan nan nan nan nan nan nan 25 30 25 27 24 22 25 27 28 30 34 28 28 24 25 23 25 24 21 20 24 26 27 27 30 30 29 31 32 33 34 35 37 37 38 39 35 42 44
nan nan nan nan nan nan nan nan nan nan 21 28 30 28 23 25 27 29 32 36 30 28 28 30 32 31 27 25 26 28 29 30 29 30 31 36 36 38 38 37 38 40 41 40 41 41 41 40 42
nan nan nan nan nan nan nan nan nan nan nan 25 25 27 29 31 34 36 35 33 32 31 33 35 36 38 37 34 32 29 29 32 34 36 36 36 39 41 41 41 41 41 42 44 45 44 43 43 37
nan nan nan nan nan nan nan nan nan nan nan 19 21 27 31 33 34 33 34 36 37 40 40 40 41 41 39 37 35 34 35 38 38 40 41 43 44 45 45 44 42 42 44 45 48 46 44 41 39
Wind_Direction
52 68 100 77 nan nan nan nan nan nan nan 48 49 41 30 122 nan nan nan 29 355 26 21 305 296 297 281 260 246 213 206 210 214 226 228 205 204 218 206 193 183 185 178 168 148 76 76 51 20
66 59 96 nan nan nan nan nan nan nan nan nan 26 38 49 50 nan nan 61 25 14 14 42 288 303 291 310 267 242 236 225 209 197 214 225 211 184 217 215 206 190 191 196 184 162 211 340 38 32
86 74 nan nan nan nan nan nan nan nan nan nan 35 48 57 nan nan nan 45 24 355 317 166 261 271 280 285 228 233 235 217 210 196 195 218 213 193 200 213 213 201 193 201 191 186 221 21 16 37
99 97 nan nan nan nan nan nan nan nan 54 48 45 41 46 46 50 43 26 20 360 88 140 260 287 283 259 252 268 243 221 205 190 196 205 204 193 196 208 207 196 197 199 200 198 214 255 10 37
98 nan nan nan nan nan nan nan 59 nan 57 73 57 47 40 57 20 9 18 24 18 77 127 313 261 251 263 259 253 232 229 210 199 182 212 195 194 193 198 190 188 199 208 213 202 212 212 104 79
109 nan nan nan nan nan nan nan 45 55 54 51 50 51 53 28 17 29 25 21 32 42 83 297 283 244 269 261 255 232 241 223 206 184 185 195 187 199 205 192 188 200 214 216 219 214 223 163 135
95 95 65 60 63 73 nan nan 39 40 48 52 50 59 48 40 29 31 31 33 41 43 46 249 218 262 275 272 250 255 243 243 219 196 178 180 187 192 214 207 196 196 212 220 220 214 213 190 151
23 13 87 56 52 57 nan nan 28 29 54 51 34 48 44 36 nan 29 35 46 49 41 35 97 94 171 172 196 329 256 260 259 270 223 179 179 182 195 207 197 195 189 207 214 219 220 230 218 152
318 276 54 70 51 nan nan nan 41 nan 24 43 45 48 24 9 16 22 29 54 61 55 42 83 158 168 155 158 349 340 341 310 277 200 176 171 174 189 184 189 188 183 192 196 213 211 218 229 194
279 300 nan 42 61 nan nan 44 nan 31 29 38 43 10 2 9 18 22 28 35 52 51 55 64 156 165 169 124 155 122 139 234 202 193 184 189 188 183 179 177 156 196 185 189 209 211 209 220 223
nan nan nan nan nan nan nan nan 45 21 39 38 18 14 12 19 29 33 35 34 40 44 46 61 122 129 141 158 155 127 113 195 205 189 191 198 203 190 178 183 181 196 189 204 209 217 213 224 230
nan nan nan nan nan nan nan nan nan 38 51 17 13 10 14 22 29 35 36 36 42 51 53 60 66 76 74 127 149 138 110 92 114 131 2 241 261 209 191 186 194 199 205 202 210 223 217 218 244
nan nan nan nan nan nan nan nan 48 48 49 356 4 9 15 28 32 37 37 41 41 51 62 60 60 60 64 63 124 142 122 103 85 74 351 316 324 268 232 214 206 204 210 212 197 189 214 202 213
nan nan nan nan nan nan nan 44 62 50 13 7 7 9 21 23 32 32 33 33 38 46 55 61 62 61 60 66 68 89 108 89 30 57 51 45 32 18 251 245 223 220 213 224 218 188 207 212 205
nan nan nan nan nan nan nan 58 77 39 16 10 20 15 15 28 27 34 28 26 22 34 41 51 56 58 57 59 64 68 67 69 61 53 48 40 31 23 29 244 246 238 238 227 240 185 216 224 214
nan nan nan nan nan nan nan nan 67 30 15 20 26 28 24 24 32 34 37 31 18 13 19 33 49 54 56 58 63 64 56 55 53 52 54 40 29 30 37 35 32 261 264 249 243 228 224 230 238
nan nan nan nan nan nan nan nan 50 48 44 42 36 32 33 32 31 29 30 31 19 4 2 10 25 44 49 59 69 59 51 51 52 47 47 47 40 34 20 28 37 33 287 257 245 230 227 228 236
nan nan nan nan nan nan nan nan 98 51 43 33 35 27 24 30 32 24 19 14 10 5 348 351 6 14 27 49 56 58 53 48 41 41 44 40 41 34 27 27 22 9 343 347 317 280 240 226 234
nan nan nan nan nan nan nan nan 59 61 58 48 47 34 29 30 26 20 17 13 9 358 347 338 348 341 342 352 340 315 15 22 341 359 9 8 1 6 6 12 1 348 347 345 329 302 294 238 237
nan nan nan nan nan nan nan nan nan 129 75 45 32 37 24 24 23 25 29 25 11 8 1 343 332 319 326 315 311 316 300 275 280 300 332 336 341 336 333 333 325 327 316 316 321 317 287 266 260
nan nan nan nan nan nan nan nan nan 240 341 54 61 48 31 24 16 12 16 22 19 19 6 353 343 333 319 308 288 296 302 322 304 288 293 304 307 305 307 312 303 302 303 296 307 308 316 292 273
nan nan nan nan nan nan nan nan nan 304 341 20 36 36 26 17 3 2 7 12 11 21 354 349 338 334 317 305 300 320 309 308 294 309 280 287 297 304 294 295 297 302 291 293 285 286 300 300 294
nan nan nan nan nan nan nan nan nan 297 349 7 1 16 7 358 357 353 358 14 3 349 351 353 351 354 329 321 318 302 294 290 285 281 290 294 294 304 298 296 291 298 291 291 290 292 292 294 296
nan nan nan nan nan nan nan nan nan 316 344 312 297 312 325 333 341 341 343 346 351 345 338 339 335 335 319 313 309 314 320 315 295 290 285 295 297 303 310 306 308 303 301 287 281 283 286 287 287
nan nan nan nan nan nan nan nan nan nan 300 318 316 301 306 320 319 326 333 338 337 340 333 319 317 320 314 313 308 313 318 313 314 308 301 302 302 300 306 307 307 300 300 298 294 283 275 275 280
nan nan nan nan nan nan nan nan nan nan nan 291 291 301 303 309 310 316 326 323 330 323 326 310 308 308 306 304 309 305 302 297 297 298 298 297 298 299 301 301 300 300 300 298 291 282 278 278 264
nan nan nan nan nan nan nan nan nan nan 286 292 290 293 304 308 305 313 312 316 317 307 317 310 307 301 297 296 282 291 297 301 304 302 299 298 296 293 293 295 295 297 298 297 293 289 284 279 281
nan nan nan nan nan nan nan nan nan nan 284 291 295 300 308 300 307 309 314 311 306 308 307 305 303 300 293 289 289 290 294 293 289 287 294 295 293 292 291 292 294 294 295 294 293 289 287 282 278
nan nan nan nan nan nan nan nan nan nan nan 310 309 313 309 310 310 312 310 309 305 299 303 303 301 297 295 294 293 293 290 290 291 293 290 286 283 283 283 285 286 288 290 292 290 291 289 288 282
nan nan nan nan nan nan nan nan nan nan nan 306 306 301 298 303 311 311 307 302 303 304 305 299 292 291 291 295 299 300 297 293 292 294 293 289 288 288 290 288 285 284 285 286 289 288 286 286 279